Regional Weather Roundup
Issued by NWS

Home | Current Version | Previous Version | Graphics & Text | Print | Product List | Glossary On
Versions: 1 2 3 4 5 6 7 8 9 10 11 12 13 14 15 16 17 18 19 20 21 22 23 24 25 26 27 28 29 30 31 32 33 34 35 36 37 38 39 40 41 42 43 44 45 46 47 48 49 50
000
ASUS43 KTOP 101359
RWRKS

WEATHER ROUNDUP FOR KANSAS
NATIONAL WEATHER SERVICE GOODLAND KS
900 AM CDT THU JUL 10 2014

NOTE:  "FAIR" INDICATES FEW OR NO CLOUDS BELOW 12,000 FEET WITH NO
SIGNIFICANT WEATHER AND/OR OBSTRUCTIONS TO VISIBILITY.

KSZ001>006-013>018-027>032-041>047-101500-
NORTHWEST KANSAS

CITY           SKY/WX    TMP DP  RH WIND       PRES   REMARKS
GOODLAND       CLOUDY    65  62  90 S21       30.03F
HAYS           MOSUNNY   70  61  73 S17G23    29.99S
HILL CITY      SUNNY     71  63  75 S15       29.99R
RUSSELL        PTSUNNY   72  63  73 S20G26    29.94R
$$

KSZ061>065-074>080-084>089-101500-
SOUTHWEST KANSAS

CITY           SKY/WX    TMP DP  RH WIND       PRES   REMARKS
DODGE CITY     SUNNY     69  60  73 SE24G33   30.03S
ELKHART          N/A     77  55  46 S14         N/A
GARDEN CITY    MOSUNNY   70  61  73 SE17G35   30.01R
GREAT BEND     MOSUNNY   66  63  88 S13       29.98S
LIBERAL        SUNNY     72  63  73 E18G25    30.03F
$$

KSZ066>073-081>083-090>101-101500-
SOUTHEAST KANSAS

CITY           SKY/WX    TMP DP  RH WIND       PRES   REMARKS
CHANUTE        LGT RAIN  68  63  84 S9        30.09F
COFFEYVILLE    HVY RAIN  67  67 100 W3        30.13R FOG
HUTCHINSON     CLOUDY    68  64  87 S13       30.01R
MEDICINE LODGE   N/A     68  63  84 SE12G17   30.03F
NEWTON         CLOUDY    66  61  82 SE10      30.03R
PARSONS        LGT RAIN  67  64  90 S3        30.12F FOG
WICHITA INTL   LGT RAIN  67  67 100 S15       30.02R
WICHITA JABRA  CLOUDY    67  64  90 S15       30.02R
WINFIELD       LGT RAIN  66  64  93 SE9       30.01F
$$

KSZ007>012-019>026-033>040-048>060-102>105-101500-
NORTHEAST KANSAS

CITY           SKY/WX    TMP DP  RH WIND       PRES   REMARKS
CONCORDIA      PTSUNNY   71  67  87 S13       30.01R
EMPORIA        CLOUDY    68  64  87 SE14      30.04F
LAWRENCE       CLOUDY    73  63  70 SE9       30.08R
MANHATTAN      PTSUNNY   73  65  75 S8        30.01R
OLATHE IND     CLOUDY    72  61  68 SE10      30.10R
OLATHE EXE     CLOUDY    70  61  73 SE8       30.09R
SALINA         PTSUNNY   70  65  84 S8        29.99R
TOPEKA BILLARD PTSUNNY   75  65  70 SE9       30.06R
TOPEKA FORBES  PTSUNNY   74  64  71 SE8       30.05S
$$


USA.gov is the U.S. government's official web portal to all federal, state and local government web resources and services.